Tracking 27122 objects as of 25-Mar-2023
HD Live streaming from Space Station
objects crossing your sky now

STARLINK-3988

Track STARLINK-3988 now!
10-day predictions
STARLINK-3988 is classified as:


NORAD ID: 52625
Int'l Code: 2022-052AD
Perigee: 546.0 km
Apogee: 547.7 km
Inclination: 53.2 °
Period: 95.4 minutes
Semi major axis: 6917 km
RCS: Unknown
Launch date: May 14, 2022
Source: United States (US)
Launch site: AIR FORCE EASTERN TEST RANGE (AFETR)
Your satellite tracking list
Your tracking list is empty




NASA's NSSDC Master Catalog

Two Line Element Set (TLE):
1 52625U 22052AD  23084.15235541 -.00000400  00000-0 -70334-5 0  9992
2 52625  53.2162  79.8347 0001238 121.5841 238.5272 15.08836838 48242
Source of the keplerian elements: AFSPC